Погода в Хильдесхайме

Германия     52°09′26″N   9°57′23″E
темп.,
°C
ветер,
м/с
пор.,
м/с
влажн.,
%
обл.,
%
осадки,
мм/ч
давл.,
гПа
погр.,
м
27 сентября, пн
пн2723:00+18юз1188100 2.1 101611
02:00+17юз3590100 2.2 101689
05:00+16ююз349384 0.1 101666
08:00+16ю2492100 0.3 101592
11:00+20ююз3574100 0.0 1016542
14:00+22ююз455869 0.0 10151356
17:00+23ююз3558100 0.1 10141423
20:00+17зюз61389100 1.3 1016551
28 сентября, вт
вт2823:00+16юз2790100 0.9 1018344
02:00+13зсз51088100 1.3 1021554
05:00+10з3691100 0.0 1023162
08:00+10юз129192 0.0 102439
11:00+14зюз227679 0.0 1025597
14:00+16зюз2260100 0.1 10241263
17:00+16юз1258100 0.0 10231109
20:00+13в1171100 0.0 102310
29 сентября, ср
ср2923:00+12вюв3374100 0.0 102341
02:00+11юв3474100 0.0 102271
05:00+11вюв3474100 0.0 102086
08:00+11ююв357293 0.0 1019109
11:00+13ю597337 0.0 1018408
14:00+18з8950100 0.0 10181820
17:00+14з6106443 0.0 10201236
20:00+9юз33735 0.0 102253
30 сентября, чт
чт3023:00+9зюз512731 0.0 1024507
02:00+8юз513670 0.0 1024473
05:00+8юз614670 0.0 1025576
08:00+7юз714720 0.0 1025594
11:00+11юз711577 0.0 1026975
14:00+14зюз794499 0.0 10251654
17:00+14юз584798 0.0 10241454
20:00+11ююз3857100 0.0 1023175
1 октября, пт
пт123:00+11ююз51055100 0.1 1022531
02:00+11ююз71359100 0.3 1022708
05:00+11ююз61254100 0.1 1020593
08:00+11ююз7126896 0.1 1020462
11:00+14ююз61160100 0.0 1020637
14:00+17юз61056100 0.0 10181193
17:00+17ююз6958100 0.0 1017641
20:00+14ю6135879 0.0 1016385